Lid_Strength_Index
17 17 17 17 17 17 17 17 16 14 14 14 12 9 8 4 4 7 9 9 9 10
17 17 17 17 17 17 17 16 15 16 16 14 12 12 9 9 5 7 8 9 8 9
18 18 17 17 18 18 17 17 17 17 16 16 15 14 12 10 5 8 10 10 9 9
19 18 18 18 18 18 17 17 18 18 17 16 15 14 13 11 9 9 10 10 10 10
19 19 19 19 18 18 18 18 18 18 17 17 17 16 14 12 12 9 11 11 11 10
20 20 20 19 19 19 18 19 18 18 18 18 16 17 15 13 13 14 11 12 11 12
21 20 20 19 19 19 19 20 19 19 18 18 17 17 15 14 14 15 12 10 11 12
21 20 20 20 20 20 20 20 19 19 19 19 18 17 16 14 15 15 15 11 11 12
22 21 21 21 21 20 21 21 21 20 20 20 18 16 15 13 14 15 15 14 12 11
22 23 23 23 22 21 22 22 21 21 20 20 19 16 15 14 14 14 15 14 13 13
24 24 24 24 23 23 22 22 21 20 20 20 19 16 15 14 13 14 16 16 14 13
25 26 26 26 24 22 22 22 21 20 19 20 20 17 16 15 15 15 15 15 14 13
26 28 27 25 23 22 23 22 20 20 19 17 18 16 15 15 15 16 16 15 13 12
27 28 24 23 23 23 23 22 22 20 18 16 16 18 15 14 14 15 15 14 12 12